Location: *
(40.7190°N, 4.2480°W)
Time: 17:43:44
(UTC+00:00)

STARLINK-1128 - Pass Details

Date: 18 February 2020
Orbit: 548 x 551 km, 53.0° (Epoch: 29 March)

Event Time Altitude Azimuth Distance (km) Brightness Sun altitude
Exits shadow 05:20:35 22° 192° (SSW) 1,231 5.2 -21.0°
Maximum altitude 05:22:48 41° 134° (SE) 806 4.7 -20.5°
Drops below altitude 10° 05:26:46 10° 63° (ENE) 1,844 7.2 -19.8°
Sets 05:29:06 0° 57° (ENE) 2,744 8.2 -19.4°
